• En Colombia
  • Lista de países
  • Para 7 días
  • Temperatura del agua
  • El tiempo en el mapa
  • Informadores
  • user-avatar
    Iniciar sesión

    Tiempo cada hora Shkoder

    Hoy, 5 Diciembre, Jueves

    Tiempo Temperatura Precipitaciones Viento Presión Humedad
    00:00 0°C° 0 mm 4 mps 747 mmHg 70%
    01:00 +1°C° 0 mm 3 mps 747 mmHg 72%
    02:00 +2°C° 0 mm 3 mps 747 mmHg 70%
    03:00 +2°C° 0 mm 3 mps 746 mmHg 68%
    04:00 +2°C° 0 mm 3 mps 746 mmHg 67%
    05:00 +2°C° 0 mm 3 mps 746 mmHg 67%
    06:00 +2°C° 0 mm 3 mps 746 mmHg 68%
    07:00 +2°C° 0 mm 3 mps 747 mmHg 70%
    08:00 +5°C° 0 mm 2 mps 747 mmHg 67%
    09:00 +6°C° 0 mm 2 mps 747 mmHg 65%
    10:00 +8°C° 0 mm 2 mps 746 mmHg 62%
    11:00 +9°C° 0 mm 2 mps 746 mmHg 62%
    12:00 +9°C° 0 mm 2 mps 746 mmHg 61%
    13:00 +11°C° 0 mm 1 mps 746 mmHg 61%
    14:00 +10°C° 0 mm 1 mps 746 mmHg 65%
    15:00 +9°C° 0 mm 1 mps 746 mmHg 70%
    16:00 +8°C° 0 mm 1 mps 746 mmHg 74%
    17:00 +8°C° 0 mm 1 mps 746 mmHg 74%
    18:00 +7°C° 0 mm 2 mps 746 mmHg 75%
    19:00 +6°C° 0 mm 2 mps 747 mmHg 75%
    20:00 +6°C° 0 mm 2 mps 747 mmHg 75%
    21:00 +7°C° 0 mm 1 mps 747 mmHg 75%
    22:00 +7°C° 0 mm 1 mps 747 mmHg 76%
    23:00 +8°C° 0 mm 1 mps 747 mmHg 76%

    Mañana, 6 Diciembre, Viernes

    Tiempo Temperatura Precipitaciones Viento Presión Humedad
    00:00 +8°C° 0 mm 1 mps 747 mmHg 75%
    01:00 +8°C° 0 mm 1 mps 747 mmHg 75%
    02:00 +8°C° 0 mm 1 mps 747 mmHg 76%
    03:00 +8°C° 0 mm 1 mps 746 mmHg 77%
    04:00 +9°C° 0 mm 1 mps 746 mmHg 78%
    05:00 +9°C° 0 mm 1 mps 746 mmHg 78%
    06:00 +9°C° 0 mm 1 mps 746 mmHg 79%
    07:00 +9°C° 0 mm 1 mps 746 mmHg 79%
    08:00 +10°C° 0 mm 1 mps 746 mmHg 77%
    09:00 +12°C° 0 mm 1 mps 746 mmHg 74%
    10:00 +13°C° 0 mm 1 mps 746 mmHg 72%
    11:00 +13°C° 0 mm 1 mps 746 mmHg 72%
    12:00 +14°C° 0 mm 1 mps 745 mmHg 73%
    13:00 +14°C° 0 mm 1 mps 745 mmHg 74%
    14:00 +13°C° 0.4 mm 1 mps 744 mmHg 78%
    15:00 +13°C° 0.4 mm 1 mps 744 mmHg 83%
    16:00 +12°C° 0.4 mm 1 mps 744 mmHg 88%
    17:00 +12°C° 1 mm 1 mps 744 mmHg 90%
    18:00 +12°C° 1 mm 1 mps 744 mmHg 92%
    19:00 +12°C° 1 mm 1 mps 744 mmHg 94%
    20:00 +12°C° 4.5 mm 1 mps 744 mmHg 95%
    21:00 +12°C° 4.5 mm 1 mps 744 mmHg 96%
    22:00 +12°C° 4.5 mm 1 mps 743 mmHg 97%
    23:00 +12°C° 4.3 mm 1 mps 743 mmHg 97%

    Pasado mañana, 7 Diciembre, Sábado

    Tiempo Temperatura Precipitaciones Viento Presión Humedad
    00:00 +12°C° 4.3 mm 1 mps 743 mmHg 96%
    01:00 +12°C° 4.3 mm 2 mps 742 mmHg 95%
    02:00 +12°C° 3.5 mm 2 mps 742 mmHg 95%
    03:00 +12°C° 3.5 mm 1 mps 742 mmHg 94%
    04:00 +12°C° 3.5 mm 1 mps 741 mmHg 94%
    05:00 +12°C° 2.9 mm 1 mps 741 mmHg 94%
    06:00 +12°C° 2.9 mm 1 mps 741 mmHg 94%
    07:00 +10°C° 2.9 mm 2 mps 741 mmHg 94%
    08:00 +12°C° 0.5 mm 1 mps 741 mmHg 91%
    09:00 +12°C° 0.5 mm 1 mps 741 mmHg 88%
    10:00 +13°C° 0.5 mm 1 mps 741 mmHg 85%
    11:00 +14°C° 0.1 mm 1 mps 741 mmHg 83%
    12:00 +14°C° 0.1 mm 1 mps 741 mmHg 82%
    13:00 +15°C° 0.1 mm 1 mps 740 mmHg 80%
    14:00 +14°C° 0.1 mm 1 mps 740 mmHg 82%
    15:00 +13°C° 0.1 mm 0 mps 740 mmHg 85%
    16:00 +12°C° 0.1 mm 0 mps 740 mmHg 88%
    17:00 +11°C° 0.1 mm 0 mps 740 mmHg 88%
    18:00 +12°C° 0.1 mm 1 mps 741 mmHg 88%
    19:00 +12°C° 0.1 mm 1 mps 741 mmHg 88%
    20:00 +11°C° 0 mm 1 mps 741 mmHg 87%
    21:00 +11°C° 0 mm 1 mps 741 mmHg 87%
    22:00 +11°C° 0 mm 1 mps 741 mmHg 87%
    23:00 +11°C° 0 mm 1 mps 741 mmHg 87%

    8 Diciembre, Domingo

    Tiempo Temperatura Precipitaciones Viento Presión Humedad
    00:00 +11°C° 0 mm 1 mps 741 mmHg 87%
    01:00 +10°C° 0 mm 1 mps 741 mmHg 87%
    02:00 +10°C° 0 mm 1 mps 741 mmHg 86%
    03:00 +10°C° 0 mm 1 mps 741 mmHg 86%
    04:00 +10°C° 0 mm 1 mps 741 mmHg 85%
    05:00 +10°C° 0 mm 1 mps 741 mmHg 85%
    06:00 +10°C° 0 mm 1 mps 741 mmHg 84%
    07:00 +9°C° 0 mm 1 mps 741 mmHg 84%
    08:00 +11°C° 0 mm 1 mps 742 mmHg 81%
    09:00 +12°C° 0 mm 1 mps 742 mmHg 79%
    10:00 +13°C° 0 mm 1 mps 742 mmHg 76%
    11:00 +13°C° 0 mm 1 mps 742 mmHg 75%
    12:00 +14°C° 0 mm 1 mps 741 mmHg 74%
    13:00 +13°C° 0 mm 0 mps 741 mmHg 73%
    14:00 +12°C° 0 mm 0 mps 741 mmHg 77%
    15:00 +12°C° 0 mm 0 mps 741 mmHg 81%
    16:00 +11°C° 0 mm 0 mps 740 mmHg 85%
    17:00 +10°C° 0 mm 0 mps 741 mmHg 86%
    18:00 +10°C° 0 mm 0 mps 741 mmHg 87%
    19:00 +9°C° 0 mm 0 mps 741 mmHg 88%
    20:00 +10°C° 0 mm 1 mps 741 mmHg 88%
    21:00 +10°C° 0 mm 1 mps 741 mmHg 88%
    22:00 +10°C° 0 mm 1 mps 741 mmHg 88%
    23:00 +10°C° 0 mm 1 mps 740 mmHg 88%

    9 Diciembre, Lunes

    Tiempo Temperatura Precipitaciones Viento Presión Humedad
    00:00 +10°C° 0 mm 1 mps 740 mmHg 88%
    01:00 +9°C° 0 mm 1 mps 740 mmHg 88%
    02:00 +9°C° 0 mm 1 mps 740 mmHg 89%
    03:00 +9°C° 0 mm 1 mps 739 mmHg 89%
    04:00 +9°C° 0 mm 1 mps 739 mmHg 90%
    05:00 +10°C° 0 mm 1 mps 739 mmHg 89%
    06:00 +10°C° 0 mm 1 mps 739 mmHg 89%
    07:00 +10°C° 0 mm 1 mps 739 mmHg 89%
    08:00 +10°C° 0.2 mm 1 mps 739 mmHg 90%
    09:00 +10°C° 0.2 mm 2 mps 738 mmHg 91%
    10:00 +10°C° 0.2 mm 2 mps 738 mmHg 92%
    11:00 +10°C° 0.4 mm 2 mps 737 mmHg 92%
    12:00 +10°C° 0.4 mm 2 mps 737 mmHg 91%
    13:00 +12°C° 0.4 mm 2 mps 736 mmHg 91%
    14:00 +12°C° 0.5 mm 2 mps 736 mmHg 92%
    15:00 +12°C° 0.5 mm 2 mps 736 mmHg 92%
    16:00 +12°C° 0.5 mm 2 mps 735 mmHg 93%
    17:00 +12°C° 0.2 mm 2 mps 735 mmHg 92%
    18:00 +10°C° 0.2 mm 2 mps 735 mmHg 92%
    19:00 +11°C° 0.2 mm 1 mps 735 mmHg 92%
    20:00 +11°C° 0.8 mm 1 mps 735 mmHg 93%
    21:00 +11°C° 0.8 mm 1 mps 735 mmHg 94%
    22:00 +11°C° 0.8 mm 1 mps 735 mmHg 95%
    23:00 +10°C° 6.4 mm 2 mps 735 mmHg 95%

    10 Diciembre, Martes

    Tiempo Temperatura Precipitaciones Viento Presión Humedad
    00:00 +9°C° 6.4 mm 2 mps 734 mmHg 96%
    01:00 +9°C° 6.4 mm 2 mps 734 mmHg 96%
    02:00 +8°C° 2 mm 2 mps 735 mmHg 93%
    03:00 +8°C° 2 mm 2 mps 735 mmHg 91%
    04:00 +7°C° 2 mm 2 mps 735 mmHg 89%
    05:00 +7°C° 0 mm 2 mps 736 mmHg 87%
    06:00 +7°C° 0 mm 2 mps 737 mmHg 86%
    07:00 +5°C° 0 mm 3 mps 737 mmHg 84%
    08:00 +7°C° 0 mm 3 mps 738 mmHg 82%
    09:00 +8°C° 0 mm 3 mps 739 mmHg 80%
    10:00 +9°C° 0 mm 3 mps 740 mmHg 78%
    11:00 +8°C° 0 mm 4 mps 740 mmHg 76%
    12:00 +10°C° 0 mm 4 mps 740 mmHg 74%
    13:00 +9°C° 0 mm 5 mps 740 mmHg 71%
    14:00 +8°C° 0 mm 4 mps 741 mmHg 72%
    15:00 +7°C° 0 mm 4 mps 741 mmHg 73%
    16:00 +7°C° 0 mm 3 mps 741 mmHg 74%
    17:00 +7°C° 0 mm 3 mps 742 mmHg 73%
    18:00 +5°C° 0 mm 3 mps 742 mmHg 73%
    19:00 +4°C° 0 mm 3 mps 742 mmHg 72%
    20:00 +4°C° 0 mm 3 mps 743 mmHg 72%
    21:00 +4°C° 0 mm 3 mps 743 mmHg 71%
    22:00 +3°C° 0 mm 3 mps 743 mmHg 70%
    23:00 +3°C° 0 mm 3 mps 743 mmHg 68%
    Mostrar más